Voltar ao catálogo

STARLINK-31091

AtivoComunicaçõesVLEO
NORAD 58629·PAYLOAD·🇺🇸 United States

Lançado Dec 23, 2023 de Cape Canaveral Space Force Station

Loading…

Próximas Passagens (próximas 24 horas)

TLE

AtualizadoSource: CelesTrak SupGP

Época: Sep 15, 2026, 03:26 UTC

1 58629C 23203M   26258.14354167 -.00020771  00000+0 -75228-3 0  2587
2 58629  43.0006  80.8012 0001449 270.3948  84.1958 15.27590084    12

Acompanhe STARLINK-31091 em tempo real com AllMySat

Download on the App Store